period_start,C,m1,H,J0,J1,J2,J3,J4,J5,JA,JB,JC,JD,JJ,JK,JN,#
2017-03-10 00:00:47,0.12,5.99,0.00,24.07,26.50,29.97,14.10,48.99,997.69,2028.93,1815.66,1864.14,2133.54,599.88,582.69,25.17,0000 0000 0000 0000 000000
2017-03-10 00:05:49,0.11,6.00,0.00,24.18,26.50,29.97,14.23,48.98,997.66,2028.93,1814.44,1863.65,2132.69,600.14,582.85,25.22,0000 0000 0000 0000 000000
2017-03-10 00:10:50,0.09,6.00,0.00,24.07,26.50,29.98,14.17,49.00,997.81,2028.92,1813.22,1862.97,2131.74,599.75,582.60,25.27,0000 0000 0000 0000 000000
2017-03-10 00:15:51,0.15,6.01,0.00,24.16,26.50,29.97,14.14,48.96,997.91,2028.87,1811.82,1862.07,2130.49,599.69,582.50,25.32,0000 0000 0000 0000 000000
2017-03-10 00:20:52,0.15,6.02,0.00,24.05,26.50,29.97,14.14,48.85,997.96,2028.86,1810.41,1861.10,2129.38,599.72,582.88,25.37,0000 0000 0000 0000 000000
2017-03-10 00:25:53,0.13,6.02,0.00,23.92,26.49,29.97,14.14,49.08,998.05,2028.84,1809.03,1860.27,2128.40,599.96,583.32,25.42,0000 0000 0000 0000 000000
2017-03-10 00:30:54,0.10,6.03,0.00,24.19,26.49,29.96,14.10,49.00,998.03,2028.88,1807.85,1859.80,2127.55,599.98,582.79,25.47,0000 0000 0000 0000 000000
2017-03-10 00:35:56,0.10,6.04,0.00,24.21,26.49,29.96,14.17,48.93,998.01,2028.84,1806.65,1859.03,2126.71,600.15,582.69,25.52,0000 0000 0000 0000 000000
2017-03-10 00:40:57,0.12,6.04,0.00,24.12,26.49,29.97,14.14,48.92,997.95,2028.65,1805.39,1858.27,2125.69,599.99,582.85,25.57,0000 0000 0000 0000 000000
2017-03-10 00:45:58,0.11,6.05,0.00,24.08,26.49,29.97,14.14,48.98,997.85,2028.75,1804.19,1857.68,2124.87,600.01,582.94,25.62,0000 0000 0000 0000 000000
2017-03-10 00:51:00,0.09,6.05,0.00,24.07,26.49,29.97,14.21,49.01,997.75,2028.66,1802.97,1857.02,2123.99,600.10,582.97,25.67,0000 0000 0000 0000 000000
2017-03-10 00:56:01,0.14,6.06,0.00,24.15,26.49,29.96,14.16,49.02,997.70,2028.67,1801.72,1856.24,2123.07,599.82,582.45,25.72,0000 0000 0000 0000 000000
2017-03-10 01:01:02,0.15,6.07,0.00,24.11,26.49,29.97,14.16,49.11,997.85,2028.75,1800.45,1855.57,2122.08,599.85,582.65,25.77,0000 0000 0000 0000 000000
2017-03-10 01:06:04,0.07,6.07,0.00,24.10,26.49,29.97,14.19,49.19,997.62,2028.62,1799.09,1854.95,2121.02,599.83,582.63,25.82,0000 0000 0000 0000 000000
2017-03-10 01:11:05,0.13,6.08,0.00,24.12,26.49,29.97,14.16,49.19,997.70,2028.51,1797.76,1854.11,2119.96,599.83,582.60,25.88,0000 0000 0000 0000 000000
2017-03-10 01:16:06,0.11,6.09,0.00,24.21,26.49,29.96,14.14,49.19,997.93,2028.35,1796.56,1853.24,2118.97,600.03,582.64,25.93,0000 0000 0000 0000 000000
2017-03-10 01:21:07,0.14,6.09,0.00,24.13,26.50,29.97,14.17,49.21,998.06,2028.28,1795.27,1852.64,2118.04,599.83,582.74,25.98,0000 0000 0000 0000 000000
2017-03-10 01:26:09,0.11,6.10,0.00,24.17,26.50,29.96,14.21,49.08,998.06,2028.40,1794.03,1851.98,2117.10,600.20,582.97,26.03,0000 0000 0000 0000 000000
2017-03-10 01:31:10,0.13,6.11,0.00,24.18,26.50,29.96,14.19,49.11,998.06,2028.32,1792.61,1851.10,2116.02,600.02,582.83,26.08,0000 0000 0000 0000 000000
2017-03-10 01:36:11,0.13,6.11,0.00,24.12,26.50,29.96,14.10,49.17,998.06,2028.24,1791.42,1850.12,2114.97,599.52,582.56,26.13,0000 0000 0000 0000 000000
2017-03-10 01:41:13,0.13,6.12,0.00,24.16,26.50,29.97,14.10,49.03,998.06,2028.28,1790.26,1849.55,2114.05,599.62,582.54,26.18,0000 0000 0000 0000 000000
2017-03-10 01:46:14,0.09,6.12,0.00,24.18,26.50,29.95,14.12,49.11,998.07,2028.15,1788.96,1848.84,2113.09,599.40,582.23,26.23,0000 0000 0000 0000 000000
2017-03-10 01:51:15,0.14,6.13,0.00,24.18,26.50,29.96,14.14,49.11,998.06,2028.05,1787.61,1848.01,2112.00,600.07,582.87,26.28,0000 0000 0000 0000 000000
2017-03-10 01:56:16,0.13,6.14,0.00,24.09,26.50,29.96,14.16,49.24,998.06,2028.04,1786.35,1847.19,2111.08,599.94,582.95,26.33,0000 0000 0000 0000 000000
2017-03-10 02:01:17,0.14,6.14,0.00,24.12,26.50,29.96,14.13,49.27,998.07,2028.11,1785.05,1846.59,2110.32,599.70,582.77,26.38,0000 0000 0000 0000 000000
2017-03-10 02:06:19,0.09,6.15,0.00,24.19,26.50,29.95,14.25,49.28,998.07,2028.07,1783.86,1845.94,2109.37,600.40,583.13,26.43,0000 0000 0000 0000 000000
2017-03-10 02:11:20,0.15,6.16,0.00,24.21,26.50,29.95,14.17,49.27,998.08,2028.02,1782.50,1845.07,2108.32,600.25,583.12,26.48,0000 0000 0000 0000 000000
2017-03-10 02:16:21,0.14,6.16,0.00,24.23,26.50,29.94,14.24,49.21,998.09,2028.05,1781.25,1844.20,2107.33,599.93,582.69,26.53,0000 0000 0000 0000 000000
2017-03-10 02:21:22,0.11,6.17,0.00,24.16,26.50,29.95,14.16,49.21,998.32,2028.02,1779.98,1843.61,2106.38,600.16,583.12,26.58,0000 0000 0000 0000 000000
2017-03-10 02:26:23,0.10,6.18,0.00,24.22,26.50,29.95,14.18,49.24,998.42,2028.01,1778.86,1842.99,2105.54,599.91,582.87,26.63,0000 0000 0000 0000 000000
2017-03-10 02:31:25,0.13,6.18,0.00,24.29,26.50,29.94,14.14,49.23,998.42,2028.02,1777.73,1842.23,2104.79,599.97,582.80,26.68,0000 0000 0000 0000 000000
2017-03-10 02:36:26,0.10,6.19,0.00,24.26,26.50,29.93,14.15,49.19,998.50,2028.01,1776.60,1841.81,2103.97,599.99,582.82,26.73,0000 0000 0000 0000 000000
2017-03-10 02:41:27,0.11,6.19,0.00,24.20,26.50,29.95,14.12,49.16,998.54,2028.01,1775.48,1841.04,2103.08,600.08,583.11,26.78,0000 0000 0000 0000 000000
2017-03-10 02:46:29,0.12,6.20,0.00,24.28,26.50,29.94,14.12,48.91,998.49,2028.01,1774.35,1840.47,2102.25,599.88,582.77,26.83,0000 0000 0000 0000 000000
2017-03-10 02:51:30,0.09,6.20,0.00,24.22,26.50,29.95,14.13,49.08,998.43,2028.00,1773.23,1839.98,2101.45,599.89,582.85,26.88,0000 0000 0000 0000 000000
2017-03-10 02:56:31,0.12,6.21,0.00,24.16,26.50,29.95,14.15,49.13,998.49,2028.00,1772.09,1839.26,2100.62,599.93,583.00,26.93,0000 0000 0000 0000 000000
2017-03-10 03:01:32,0.11,6.22,0.00,24.21,26.50,29.94,14.14,49.12,998.54,2028.00,1770.94,1838.73,2099.74,600.02,583.00,26.98,0000 0000 0000 0000 000000
2017-03-10 03:06:33,0.10,6.22,0.00,24.23,26.50,29.95,14.16,49.11,998.55,2028.00,1769.82,1838.02,2098.90,599.72,582.74,27.03,0000 0000 0000 0000 000000
2017-03-10 03:11:35,0.13,6.23,0.00,24.22,26.50,29.94,14.23,49.17,998.56,2028.00,1768.75,1837.42,2098.05,600.04,583.19,27.08,0000 0000 0000 0000 000000
2017-03-10 03:16:36,0.09,6.23,0.00,24.17,26.50,29.94,14.11,49.08,998.56,2028.00,1767.70,1836.98,2097.24,599.93,583.07,27.13,0000 0000 0000 0000 000000
2017-03-10 03:21:37,0.13,6.24,0.00,24.25,26.50,29.94,14.12,49.13,998.57,2028.00,1766.58,1836.29,2096.54,599.77,582.78,27.18,0000 0000 0000 0000 000000
2017-03-10 03:26:38,0.08,6.24,0.00,24.27,26.50,29.94,14.15,49.09,998.57,2028.00,1765.39,1835.88,2095.74,599.71,582.71,27.23,0000 0000 0000 0000 000000
2017-03-10 03:31:39,0.11,6.25,0.00,24.21,26.50,29.94,14.10,49.18,998.56,2028.00,1764.30,1835.14,2094.99,599.96,583.08,27.28,0000 0000 0000 0000 000000
2017-03-10 03:36:41,0.08,6.25,0.00,24.23,26.50,29.94,14.16,49.18,998.55,2028.00,1763.35,1834.96,2094.17,600.21,583.18,27.33,0000 0000 0000 0000 000000
2017-03-10 03:41:42,0.12,6.26,0.00,24.21,26.50,29.94,14.22,49.24,998.57,2028.00,1762.29,1834.23,2093.39,600.22,583.33,27.38,0000 0000 0000 0000 000000
2017-03-10 03:46:43,0.08,6.26,0.00,24.25,26.50,29.92,14.14,49.35,998.56,2028.00,1761.23,1833.89,2092.65,599.66,582.66,27.43,0000 0000 0000 0000 000000
2017-03-10 03:51:45,0.11,6.27,0.00,24.30,26.50,29.89,14.19,49.50,998.55,2028.00,1760.11,1833.08,2091.83,600.00,583.03,27.48,0000 0000 0000 0000 000000
2017-03-10 03:56:46,0.13,6.28,0.00,24.26,26.50,29.90,14.15,49.46,998.55,2028.00,1758.91,1832.58,2090.91,599.90,582.89,27.53,0000 0000 0000 0000 000000
2017-03-10 04:01:47,0.09,6.28,0.00,24.31,26.50,29.90,14.12,49.38,998.55,2028.00,1757.83,1832.00,2090.02,599.84,582.86,27.58,0000 0000 0000 0000 000000
2017-03-10 04:06:49,0.15,6.29,0.00,24.33,26.49,29.88,14.17,49.27,998.54,2028.00,1756.65,1831.26,2088.99,599.90,582.69,27.63,0000 0000 0000 0000 000000
2017-03-10 04:11:50,0.10,6.29,0.00,24.32,26.48,29.88,14.10,49.27,998.54,2028.00,1755.62,1830.75,2088.07,599.41,582.28,27.68,0000 0000 0000 0000 000000
2017-03-10 04:16:51,0.12,6.30,0.00,24.30,26.47,29.86,14.08,49.19,998.53,2028.00,1754.48,1830.03,2087.23,599.96,582.88,27.73,0000 0000 0000 0000 000000
2017-03-10 04:21:53,0.13,6.31,0.00,24.31,26.47,29.86,14.15,49.27,998.55,2028.00,1753.27,1829.34,2086.32,600.08,582.94,27.78,0000 0000 0000 0000 000000
2017-03-10 04:26:54,0.08,6.31,0.00,24.32,26.47,29.86,14.19,49.27,998.52,2028.00,1752.23,1828.93,2085.60,599.94,582.85,27.83,0000 0000 0000 0000 000000
2017-03-10 04:31:56,0.12,6.32,0.00,24.32,26.47,29.83,14.11,49.27,998.42,2028.00,1751.05,1828.15,2084.75,599.72,582.51,27.88,0000 0000 0000 0000 000000
2017-03-10 04:36:57,0.08,6.32,0.00,24.31,26.47,29.85,14.13,49.28,998.16,2028.00,1749.95,1827.83,2083.95,600.46,582.99,27.93,0000 0000 0000 0000 000000
2017-03-10 04:41:58,0.13,6.33,0.00,24.32,26.47,29.84,14.11,49.38,998.07,2028.00,1748.81,1827.06,2083.06,600.02,582.67,27.98,0000 0000 0000 0000 000000
2017-03-10 04:46:59,0.14,6.34,0.00,24.31,26.47,29.84,14.13,49.28,998.08,2028.00,1747.65,1826.48,2082.12,600.13,582.71,28.03,0000 0000 0000 0000 000000
2017-03-10 04:52:01,0.11,6.34,0.00,24.33,26.47,29.84,14.13,49.45,998.15,2028.01,1746.50,1825.79,2081.18,599.89,582.49,28.08,0000 0000 0000 0000 000000
2017-03-10 04:57:02,0.14,6.35,0.00,24.31,26.45,29.85,14.14,49.38,998.43,2028.01,1744.99,1824.98,2080.13,600.00,582.77,28.13,0000 0000 0000 0000 000000
2017-03-10 05:02:04,0.13,6.36,0.00,24.28,26.45,29.85,14.18,49.40,998.25,2028.00,1743.87,1824.17,2079.13,600.11,582.86,28.18,0000 0000 0000 0000 000000
2017-03-10 05:07:05,0.12,6.36,0.00,24.31,26.45,29.85,14.09,49.39,998.28,2028.00,1742.72,1823.80,2078.30,599.78,582.44,28.23,0000 0000 0000 0000 000000
2017-03-10 05:12:06,0.11,6.37,0.00,24.31,26.45,29.84,14.20,49.48,998.55,2028.01,1741.64,1823.05,2077.46,600.42,583.15,28.28,0000 0000 0000 0000 000000
2017-03-10 05:17:07,0.14,6.37,0.00,24.32,26.45,29.83,14.19,49.39,998.55,2028.01,1740.38,1822.37,2076.52,599.91,582.71,28.33,0000 0000 0000 0000 000000
2017-03-10 05:22:08,0.10,6.38,0.00,24.33,26.45,29.85,14.13,49.40,998.55,2028.00,1739.25,1821.86,2075.49,600.08,582.93,28.38,0000 0000 0000 0000 000000
2017-03-10 05:27:10,0.10,6.39,0.00,24.31,26.45,29.86,14.15,49.45,998.55,2028.00,1738.29,1821.08,2074.78,599.96,582.82,28.43,0000 0000 0000 0000 000000
2017-03-10 05:32:11,0.10,6.39,0.00,24.32,26.45,29.85,14.12,49.35,998.55,2028.00,1737.17,1820.74,2073.99,599.96,582.91,28.48,0000 0000 0000 0000 000000
2017-03-10 05:37:12,0.10,6.40,0.00,24.31,26.45,29.83,14.12,49.33,998.56,2028.00,1736.14,1820.04,2073.19,599.75,582.54,28.53,0000 0000 0000 0000 000000
2017-03-10 05:42:13,0.09,6.40,0.00,24.30,26.45,29.85,14.16,49.37,998.63,2028.00,1735.10,1819.83,2072.38,599.92,582.91,28.58,0000 0000 0000 0000 000000
2017-03-10 05:47:15,0.09,6.41,0.00,24.28,26.45,29.86,14.14,49.37,998.73,2028.00,1734.23,1819.08,2071.88,599.98,583.05,28.64,0000 0000 0000 0000 000000
2017-03-10 05:52:16,0.12,6.41,0.00,24.29,26.45,29.85,14.08,49.43,998.58,2028.00,1733.23,1818.63,2071.03,599.49,582.47,28.69,0000 0000 0000 0000 000000
2017-03-10 05:57:18,0.09,6.42,0.00,24.29,26.45,29.85,14.20,49.45,998.57,2028.00,1732.13,1818.01,2070.15,600.36,583.17,28.74,0000 0000 0000 0000 000000
2017-03-10 06:02:19,0.11,6.42,0.00,24.25,26.45,29.83,14.16,49.35,998.80,2028.00,1731.11,1817.65,2069.46,599.92,583.07,28.79,0000 0000 0000 0000 000000
2017-03-10 06:07:20,0.08,6.43,0.00,24.24,26.44,29.85,14.22,49.32,999.04,2028.00,1730.11,1817.03,2068.87,600.29,583.63,28.84,0000 0000 0000 0000 000000
2017-03-10 06:12:21,0.09,6.43,0.00,24.26,26.43,29.84,14.17,49.38,999.03,2028.00,1729.07,1816.79,2068.01,599.94,583.18,28.89,0000 0000 0000 0000 000000
2017-03-10 06:17:23,0.13,6.44,0.00,24.27,26.42,29.84,14.11,49.42,999.04,2028.00,1727.96,1816.01,2067.08,599.90,583.13,28.94,0000 0000 0000 0000 000000
2017-03-10 06:22:24,0.14,6.45,0.00,24.22,26.42,29.86,14.25,49.66,998.99,2028.00,1726.90,1815.25,2066.08,600.39,583.76,28.99,0000 0000 0000 0000 000000
2017-03-10 06:27:25,0.16,6.45,0.00,24.23,26.42,29.87,14.18,49.60,998.96,2028.00,1725.60,1814.38,2064.99,600.09,583.47,29.04,0000 0000 0000 0000 000000
2017-03-10 06:32:27,0.11,6.46,0.00,24.25,26.42,29.85,14.17,49.74,999.04,2028.00,1724.45,1813.80,2063.99,599.93,583.15,29.09,0000 0000 0000 0000 000000
2017-03-10 06:37:28,0.23,6.47,0.00,24.26,26.42,29.86,14.19,49.69,999.14,2028.00,1722.76,1812.49,2062.50,600.05,583.33,29.14,0000 0000 0000 0000 000000
2017-03-10 06:42:29,0.09,6.48,0.00,24.20,26.42,29.87,14.17,49.50,999.52,2028.00,1721.54,1811.92,2061.51,599.95,583.60,29.19,0000 0000 0000 0000 000000
2017-03-10 06:47:31,0.11,6.48,0.00,24.20,26.41,29.87,14.21,49.56,999.39,2028.00,1720.59,1811.12,2060.81,599.73,583.47,29.24,0000 0000 0000 0000 000000
2017-03-10 06:52:32,0.08,6.49,0.00,24.20,26.40,29.86,14.13,49.49,999.11,2028.00,1719.59,1810.90,2060.02,599.82,583.25,29.29,0000 0000 0000 0000 000000
2017-03-10 06:57:33,0.13,6.49,0.00,24.19,26.40,29.86,14.10,49.34,999.13,2028.00,1718.55,1810.11,2059.19,599.73,583.33,29.34,0000 0000 0000 0000 000000
2017-03-10 07:02:35,0.13,6.50,0.00,24.17,26.40,29.87,14.17,49.33,999.48,2028.00,1717.21,1809.48,2058.31,599.83,583.47,29.39,0000 0000 0000 0000 000000
2017-03-10 07:07:36,0.10,6.51,0.00,24.20,26.39,29.88,14.15,49.35,999.53,2028.00,1716.02,1808.85,2057.43,599.81,583.51,29.44,0000 0000 0000 0000 000000
2017-03-10 07:12:37,0.11,6.51,0.00,24.21,26.38,29.89,14.19,49.50,999.53,2028.00,1715.07,1808.07,2056.60,600.21,583.84,29.49,0000 0000 0000 0000 000000
2017-03-10 07:17:38,0.15,6.52,0.00,24.21,26.37,29.89,14.10,49.59,999.42,2028.01,1714.00,1807.40,2055.56,599.88,583.45,29.54,0000 0000 0000 0000 000000
2017-03-10 07:22:40,0.12,6.52,0.00,24.21,26.37,29.88,14.21,49.52,999.49,2028.00,1712.72,1806.85,2054.66,600.12,583.72,29.59,0000 0000 0000 0000 000000
2017-03-10 07:27:41,0.13,6.53,0.00,24.21,26.37,29.88,14.19,49.47,999.46,2028.01,1711.50,1806.02,2053.69,600.19,583.76,29.64,0000 0000 0000 0000 000000
2017-03-10 07:32:42,0.25,6.54,0.00,24.18,26.37,29.89,14.19,49.68,999.33,2028.00,1709.64,1804.67,2052.13,600.08,583.58,29.69,0000 0000 0000 0000 000000
2017-03-10 07:37:44,0.20,6.55,0.00,24.16,26.37,29.89,14.24,49.70,999.73,2028.00,1707.89,1803.37,2050.39,600.05,583.83,29.74,0000 0000 0000 0000 000000
2017-03-10 07:42:45,0.07,6.56,0.00,24.16,26.37,29.90,14.18,49.63,999.79,2028.02,1706.92,1802.99,2049.53,599.94,583.77,29.79,0000 0000 0000 0000 000000
2017-03-10 07:47:46,0.10,6.56,0.00,24.14,26.36,29.91,14.26,49.44,999.54,2028.01,1706.03,1802.39,2048.91,600.15,583.88,29.84,0000 0000 0000 0000 000000
2017-03-10 07:52:47,0.10,6.57,0.00,24.13,26.35,29.92,14.18,49.29,999.53,2028.00,1704.92,1801.91,2048.00,600.13,583.91,29.89,0000 0000 0000 0000 000000
2017-03-10 07:57:49,0.20,6.58,0.00,24.11,26.35,29.92,14.17,49.61,999.58,2028.01,1703.37,1800.83,2046.93,599.95,583.91,29.94,0000 0000 0000 0000 000000
2017-03-10 08:02:50,0.22,6.59,0.00,24.11,26.35,29.91,14.18,49.72,1000.01,2028.01,1701.63,1799.60,2045.59,600.01,584.19,29.99,0000 0000 0000 0000 000000
2017-03-10 08:07:52,0.11,6.59,0.00,24.09,26.34,29.91,14.21,49.64,1000.31,2028.03,1700.34,1798.90,2044.45,600.33,584.65,30.04,0000 0000 0000 0000 000000
2017-03-10 08:12:53,0.10,6.60,0.00,24.08,26.32,29.91,14.19,49.41,1000.06,2028.03,1699.54,1798.12,2043.77,599.81,584.02,30.09,0000 0000 0000 0000 000000
2017-03-10 08:17:54,0.08,6.61,0.00,24.08,26.32,29.91,14.14,49.36,1000.02,2028.03,1698.49,1797.87,2042.99,600.04,584.21,30.14,0000 0000 0000 0000 000000
2017-03-10 08:22:55,0.12,6.61,0.00,24.03,26.32,29.91,14.09,49.38,1000.50,2028.04,1697.56,1797.37,2042.39,599.76,584.43,30.19,0000 0000 0000 0000 000000
2017-03-10 08:27:56,0.06,6.62,0.00,24.00,26.30,29.91,14.21,49.08,1000.93,2028.02,1696.67,1797.00,2041.88,600.01,584.89,30.24,0000 0000 0000 0000 000000
2017-03-10 08:32:58,0.09,6.62,0.00,24.02,26.30,29.89,14.26,49.31,1000.64,2028.04,1695.80,1796.72,2041.08,600.15,584.79,30.29,0000 0000 0000 0000 000000
2017-03-10 08:37:59,0.12,6.63,0.00,24.00,26.30,29.88,14.31,49.37,1000.47,2028.06,1694.70,1796.02,2040.26,600.29,584.87,30.34,0000 0000 0000 0000 000000
2017-03-10 08:43:00,0.14,6.63,0.00,23.98,26.29,29.90,14.23,49.27,1000.31,2028.06,1693.55,1795.39,2039.52,600.11,584.69,30.39,0000 0000 0000 0000 000000
2017-03-10 08:48:01,0.18,6.64,0.00,23.97,26.30,29.90,14.21,49.44,1000.81,2028.07,1691.85,1794.43,2038.14,600.07,584.94,30.44,0000 0000 0000 0000 000000
2017-03-10 08:53:03,0.12,6.65,0.00,23.95,26.29,29.92,14.24,49.29,1000.99,2028.07,1690.70,1793.70,2037.10,600.22,585.22,30.49,0000 0000 0000 0000 000000
2017-03-10 08:58:03,0.10,6.65,0.00,23.98,26.29,29.93,14.21,49.43,1000.92,2028.06,1689.76,1792.96,2036.34,599.78,584.72,30.54,0000 0000 0000 0000 000000
2017-03-10 09:03:05,0.22,6.66,0.00,23.97,26.29,29.94,14.25,49.60,1000.52,2028.02,1688.17,1791.87,2034.76,600.25,584.96,30.59,0000 0000 0000 0000 000000
2017-03-10 09:08:06,0.20,6.67,0.00,23.85,26.28,29.93,14.23,49.58,1000.76,2028.04,1686.44,1790.71,2033.41,599.98,585.04,30.64,0000 0000 0000 0000 000000
2017-03-10 09:13:07,0.12,6.68,0.00,23.75,26.27,29.89,14.27,49.69,1001.19,2028.11,1685.13,1790.01,2032.25,600.03,585.59,30.69,0000 0000 0000 0000 000000
2017-03-10 09:18:08,0.11,6.69,0.00,23.77,26.27,29.90,14.25,49.47,1001.36,2028.06,1684.07,1789.31,2031.53,600.11,585.63,30.74,0000 0000 0000 0000 000000
2017-03-10 09:23:09,0.08,6.69,0.00,23.74,26.26,29.91,14.21,49.70,1001.03,2028.07,1683.06,1788.92,2030.81,599.50,584.94,30.79,0000 0000 0000 0000 000000
2017-03-10 09:28:10,0.38,6.71,0.00,23.75,26.26,29.93,14.21,50.02,1000.97,2028.03,1680.88,1787.14,2028.59,600.01,585.36,30.84,0000 0000 0000 0000 000000
2017-03-10 09:33:12,0.30,6.72,0.00,23.74,26.27,29.97,14.17,50.06,1001.01,2028.02,1678.32,1785.17,2026.11,600.02,585.49,30.89,0000 0000 0000 0000 000000
2017-03-10 09:38:13,0.23,6.74,0.00,23.65,26.27,29.98,14.26,49.83,1001.48,2028.03,1676.45,1783.70,2024.26,599.79,585.66,30.94,0000 0000 0000 0000 000000
2017-03-10 09:43:15,0.17,6.75,0.00,23.52,26.27,29.96,14.29,49.76,1001.65,2028.02,1675.01,1782.59,2022.94,599.92,586.20,30.99,0000 0000 0000 0000 000000
2017-03-10 09:48:16,0.11,6.75,0.00,23.43,26.25,30.01,14.28,49.69,1001.51,2028.03,1673.76,1781.85,2021.88,599.67,585.98,31.04,0000 0000 0000 0000 000000
2017-03-10 09:53:17,0.18,6.76,0.00,23.38,26.25,30.03,14.28,49.75,1001.53,2028.02,1672.48,1780.91,2020.75,599.92,586.40,31.09,0000 0000 0000 0000 000000
2017-03-10 09:58:19,0.14,6.77,0.00,23.37,26.23,30.02,14.23,49.89,1001.49,2028.03,1671.16,1780.01,2019.56,599.83,586.30,31.14,0000 0000 0000 0000 000000
2017-03-10 10:03:20,0.14,6.78,0.00,23.48,26.22,29.99,14.31,49.86,1001.57,2028.05,1669.95,1779.18,2018.67,600.19,586.46,31.19,0000 0000 0000 0000 000000
2017-03-10 10:08:21,0.10,6.78,0.00,23.46,26.22,29.97,14.31,49.67,1001.84,2028.05,1668.87,1778.66,2017.83,600.76,587.09,31.24,0000 0000 0000 0000 000000
2017-03-10 10:13:22,0.11,6.79,0.00,23.52,26.22,29.99,14.29,49.66,1001.98,2028.06,1667.84,1778.01,2016.99,599.94,586.32,31.29,0000 0000 0000 0000 000000
2017-03-10 10:18:24,0.14,6.79,0.00,23.54,26.24,30.03,14.29,49.58,1001.99,2028.06,1666.73,1777.43,2016.07,600.10,586.50,31.34,0000 0000 0000 0000 000000
2017-03-10 10:23:25,0.17,6.80,0.00,23.43,26.25,30.05,14.27,49.58,1002.33,2028.07,1665.35,1776.59,2014.93,599.84,586.58,31.39,0000 0000 0000 0000 000000
2017-03-10 10:28:26,0.12,6.81,0.00,23.29,26.24,30.08,14.37,49.61,1002.33,2028.10,1663.97,1775.91,2013.81,600.27,587.35,31.44,0000 0000 0000 0000 000000
2017-03-10 10:33:28,0.13,6.82,0.00,23.23,26.22,30.09,14.37,49.39,1002.01,2028.08,1662.91,1775.09,2012.86,600.18,587.29,31.49,0000 0000 0000 0000 000000
2017-03-10 10:38:29,0.17,6.83,0.00,23.19,26.22,30.05,14.34,49.52,1002.04,2028.15,1661.66,1774.30,2011.92,600.18,587.28,31.54,0000 0000 0000 0000 000000
2017-03-10 10:43:30,0.18,6.83,0.00,23.14,26.20,29.98,14.39,49.62,1002.04,2028.41,1660.59,1773.67,2010.86,600.00,587.18,31.59,0000 0000 0000 0000 000000
2017-03-10 10:48:31,0.24,6.84,0.00,23.12,26.20,29.96,14.31,49.69,1002.04,2028.66,1658.87,1772.46,2009.53,599.83,587.07,31.64,0000 0000 0000 0000 000000
2017-03-10 10:53:33,0.18,6.85,0.00,23.08,26.17,29.84,14.33,49.31,1002.15,2028.63,1657.45,1771.31,2008.11,600.23,587.58,31.69,0000 0000 0000 0000 000000
2017-03-10 10:58:34,0.11,6.86,0.00,23.05,26.17,29.79,14.27,49.45,1002.45,2028.74,1656.32,1770.75,2007.18,600.20,587.81,31.74,0000 0000 0000 0000 000000
2017-03-10 11:03:35,0.15,6.87,0.00,23.04,26.15,29.80,14.32,49.46,1002.40,2028.87,1655.24,1770.01,2006.33,600.23,587.91,31.79,0000 0000 0000 0000 000000
2017-03-10 11:08:36,0.27,6.88,0.00,23.03,26.15,29.82,14.28,49.53,1002.43,2028.92,1653.46,1768.83,2004.83,599.78,587.46,31.84,0000 0000 0000 0000 000000
2017-03-10 11:13:37,0.11,6.89,0.00,23.02,26.14,29.81,14.29,49.33,1002.48,2028.97,1652.08,1767.98,2003.60,600.11,587.82,31.89,0000 0000 0000 0000 000000
2017-03-10 11:18:39,0.14,6.90,0.00,23.03,26.12,29.82,14.23,49.52,1002.45,2028.97,1651.03,1767.15,2002.62,599.77,587.44,31.94,0000 0000 0000 0000 000000
2017-03-10 11:23:40,0.16,6.90,0.00,23.16,26.12,29.89,14.26,49.72,1002.34,2028.95,1649.80,1766.22,2001.47,599.80,587.11,31.99,0000 0000 0000 0000 000000
2017-03-10 11:28:42,0.19,6.91,0.00,23.16,26.14,30.00,14.40,49.75,1002.05,2028.95,1648.24,1765.07,2000.08,600.38,587.51,32.04,0000 0000 0000 0000 000000
2017-03-10 11:33:43,0.25,6.92,0.00,23.08,26.15,30.05,14.31,49.68,1001.98,2028.94,1646.47,1763.74,1998.40,599.71,586.93,32.10,0000 0000 0000 0000 000000
2017-03-10 11:38:45,0.22,6.94,0.00,22.97,26.15,30.06,14.34,49.57,1002.01,2028.94,1644.68,1762.39,1996.82,599.65,587.15,32.15,0000 0000 0000 0000 000000
2017-03-10 11:43:46,0.16,6.95,0.00,22.90,26.15,30.08,14.30,49.83,1002.11,2028.91,1643.24,1761.35,1995.65,600.10,587.70,32.20,0000 0000 0000 0000 000000
2017-03-10 11:48:47,0.18,6.96,0.00,22.86,26.15,30.00,14.39,49.99,1001.99,2028.94,1641.78,1760.56,1994.58,599.86,587.59,32.25,0000 0000 0000 0000 000000
2017-03-10 11:53:48,0.20,6.97,0.00,22.85,26.13,29.93,14.33,49.89,1002.00,2028.94,1640.03,1759.30,1993.10,600.03,587.86,32.30,0000 0000 0000 0000 000000
2017-03-10 11:58:49,0.20,6.98,0.00,22.79,26.12,29.81,14.31,49.86,1002.22,2028.97,1638.55,1758.16,1991.68,600.10,588.11,32.35,0000 0000 0000 0000 000000
2017-03-10 12:03:51,0.14,6.98,0.00,22.77,26.11,29.72,14.34,49.83,1002.30,2028.97,1637.43,1757.43,1990.70,600.01,588.08,32.40,0000 0000 0000 0000 000000
2017-03-10 12:08:52,0.14,6.99,0.00,22.76,26.10,29.71,14.40,49.95,1002.31,2028.98,1636.28,1756.63,1989.73,599.60,587.73,32.45,0000 0000 0000 0000 000000
2017-03-10 12:13:53,0.12,7.00,0.00,22.75,26.09,29.74,14.33,50.11,1002.37,2028.99,1635.11,1755.84,1988.75,599.93,588.19,32.50,0000 0000 0000 0000 000000
2017-03-10 12:18:55,0.15,7.01,0.00,22.74,26.07,29.68,14.39,49.94,1002.35,2028.99,1633.85,1755.01,1987.69,599.87,588.06,32.55,0000 0000 0000 0000 000000
2017-03-10 12:23:56,0.14,7.01,0.00,22.71,26.06,29.65,14.26,49.81,1002.31,2028.99,1632.74,1754.17,1986.81,599.80,588.09,32.60,0000 0000 0000 0000 000000
2017-03-10 12:28:57,0.14,7.02,0.00,22.65,26.05,29.66,14.34,49.73,1002.44,2028.99,1631.64,1753.55,1985.91,599.76,588.07,32.65,0000 0000 0000 0000 000000
2017-03-10 12:33:58,0.12,7.03,0.00,22.65,26.04,29.65,14.34,49.71,1002.45,2028.99,1630.49,1752.84,1985.01,600.14,588.57,32.70,0000 0000 0000 0000 000000
2017-03-10 12:38:59,0.19,7.04,0.00,22.64,26.02,29.64,14.42,49.93,1002.45,2028.99,1629.06,1751.81,1983.89,600.30,588.73,32.75,0000 0000 0000 0000 000000
2017-03-10 12:44:00,0.21,7.05,0.00,22.60,26.02,29.61,14.38,49.94,1002.46,2028.99,1627.50,1750.68,1982.56,600.02,588.60,32.80,0000 0000 0000 0000 000000
2017-03-10 12:49:02,0.20,7.06,0.00,22.57,26.00,29.59,14.46,49.87,1002.47,2029.01,1625.86,1749.40,1981.12,600.34,588.98,32.85,0000 0000 0000 0000 000000
2017-03-10 12:54:03,0.18,7.07,0.00,22.53,26.00,29.63,14.36,49.88,1002.48,2029.00,1624.54,1748.38,1979.85,599.67,588.34,32.90,0000 0000 0000 0000 000000
2017-03-10 12:59:05,0.16,7.08,0.00,22.50,25.98,29.61,14.45,49.92,1002.47,2029.02,1623.21,1747.39,1978.70,600.42,589.19,32.95,0000 0000 0000 0000 000000